Hamilton, OH

2:08 AM EDT on September 20, 2017 (GMT -0400)
Butler County Regional

Weather History for KHAO - March, 2013

Change the Weather History Date:

Tuesday, March 5, 2013

  Actual Average (KLUK) Record (KLUK)
Temperature  
Mean Temperature 36 °F -  
Max Temperature 39 °F 50 °F 80 °F (1983)
Min Temperature 32 °F 31 °F 1 °F (1978)
Degree Days  
Heating Degree Days 30    
Moisture  
Dew Point 33 °F    
Average Humidity 91    
Maximum Humidity 100    
Minimum Humidity 65    
Precipitation  
Precipitation 0.60 in - - ()
Sea Level Pressure  
Sea Level Pressure 29.71 in    
Wind  
Wind Speed 8 mph (ENE)    
Max Wind Speed 14 mph    
Max Gust Speed 18 mph    
Visibility 4 miles    
Events Rain , Snow    
Averages and records for this station are not official NWS values.
T = Trace of Precipitation, MM = Missing Value Source: NWS Daily Summary

Daily Weather History Graph

Daily Weather History Graph

Search for Another Location

Airport or City:

Trip Planner

Search our weather history database for the weather conditions in past years. The results will help you decide how hot, cold, wet, or windy it might be!

Date:

Astronomy

Mar. 05, 2013 Rise Set
Actual Time 7:04 AM EST 6:34 PM EST
Civil Twilight 6:37 AM EST 7:01 PM EST
Nautical Twilight 6:06 AM EST 7:32 PM EST
Astronomical Twilight 5:35 AM EST 8:04 PM EST
Moon 2:14 AM EST (3/5) 12:14 PM EST (3/5)
Length of Visible Light 12h 24m
Length of Day
11h 30m
Last Quarter, 41% of the Moon is Illuminated
Mar 5
Last Quarter
Mar 11
New
Mar 19
First Quarter
Mar 27
Full
Apr 3
Last Quarter

Hourly Weather History & Observations

Time (EST) Temp. Windchill Dew Point Humidity Pressure Visibility Wind Dir Wind Speed Gust Speed Precip Events Conditions
12:53 AM 37.0 °F 33.3 °F 26.1 °F 65% 30.03 in 10.0 mi ENE 4.6 mph - N/A   Overcast
2:53 AM 36.0 °F 33.3 °F 28.9 °F 76% 30.01 in 10.0 mi East 3.5 mph - N/A   Overcast
4:53 AM 35.1 °F 28.6 °F 30.0 °F 82% 29.96 in 10.0 mi East 8.1 mph - N/A   Overcast
5:53 AM 36.0 °F 31.1 °F 30.0 °F 79% 29.96 in 10.0 mi ESE 5.8 mph - N/A   Overcast
8:53 AM 36.0 °F 28.5 °F 30.0 °F 79% 29.92 in 10.0 mi East 10.4 mph - N/A   Overcast
9:53 AM 39.0 °F 31.0 °F 30.9 °F 73% 29.89 in 10.0 mi East 13.8 mph - N/A   Overcast
10:53 AM 39.0 °F 34.8 °F 28.9 °F 67% 29.88 in 10.0 mi ESE 5.8 mph - N/A   Overcast
11:53 AM 37.0 °F 29.8 °F 33.1 °F 86% 29.83 in 4.0 mi East 10.4 mph - 0.00 in   Overcast
12:04 PM 37.4 °F 30.3 °F 33.8 °F 87% 29.81 in 2.5 mi East 10.4 mph - 0.00 in   Overcast
12:17 PM 37.4 °F 29.8 °F 33.8 °F 87% 29.79 in 3.0 mi East 11.5 mph - 0.00 in   Overcast
12:32 PM 37.4 °F 29.8 °F 33.8 °F 87% 29.78 in 2.5 mi East 11.5 mph - 0.01 in Rain Light Rain
12:44 PM 37.4 °F 28.9 °F 33.8 °F 87% 29.78 in 3.0 mi East 13.8 mph - 0.01 in Rain Light Rain
12:53 PM 37.0 °F 29.3 °F 34.0 °F 89% 29.79 in 6.0 mi East 11.5 mph - 0.01 in   Overcast
1:53 PM 37.0 °F 30.4 °F 35.1 °F 93% 29.75 in 4.0 mi East 9.2 mph - 0.00 in Rain Light Rain
2:04 PM 37.4 °F 32.1 °F 35.6 °F 93% 29.71 in 6.0 mi East 6.9 mph - 0.00 in Rain Light Rain
2:25 PM 37.4 °F 29.8 °F 35.6 °F 93% 29.70 in 1.8 mi East 11.5 mph - 0.00 in   Overcast
2:32 PM 37.4 °F 30.8 °F 35.6 °F 93% 29.69 in 1.5 mi East 9.2 mph - 0.01 in Rain Light Rain
2:35 PM 37.4 °F 30.8 °F 35.6 °F 93% 29.69 in 2.0 mi East 9.2 mph - 0.01 in Rain Light Rain
2:44 PM 37.4 °F 31.4 °F 35.6 °F 93% 29.69 in 5.0 mi East 8.1 mph - 0.01 in Rain Light Rain
2:50 PM 37.4 °F 32.8 °F 35.6 °F 93% 29.69 in 2.5 mi East 5.8 mph - 0.01 in Rain Light Rain
2:53 PM 37.0 °F 31.6 °F 35.1 °F 93% 29.70 in 2.0 mi East 6.9 mph - 0.01 in Rain Light Rain
3:07 PM 37.4 °F 31.4 °F 35.6 °F 93% 29.67 in 4.0 mi East 8.1 mph - 0.00 in   Overcast
3:21 PM 37.4 °F 30.8 °F 35.6 °F 93% 29.66 in 2.0 mi East 9.2 mph - 0.01 in Rain Light Rain
3:35 PM 37.4 °F 30.8 °F 35.6 °F 93% 29.66 in 3.0 mi East 9.2 mph - 0.01 in Rain Light Rain
3:53 PM 37.0 °F 29.3 °F 35.1 °F 93% 29.66 in 2.0 mi East 11.5 mph - 0.01 in   Overcast
4:01 PM 37.4 °F 29.8 °F 35.6 °F 93% 29.64 in 1.5 mi East 11.5 mph - 0.00 in   Overcast
4:18 PM 37.4 °F 31.4 °F 35.6 °F 93% 29.63 in 2.0 mi East 8.1 mph - 0.01 in Rain Light Rain
4:32 PM 37.4 °F 32.8 °F 35.6 °F 93% 29.62 in 3.0 mi East 5.8 mph - 0.01 in Rain Light Rain
4:44 PM 37.4 °F 32.8 °F 35.6 °F 93% 29.62 in 2.5 mi ENE 5.8 mph - 0.03 in Rain Light Rain
4:53 PM 37.0 °F - 36.0 °F 96% 29.64 in 3.0 mi Calm Calm - 0.03 in Rain Light Rain
5:27 PM 37.4 °F 34.9 °F 35.6 °F 93% 29.61 in 2.5 mi NE 3.5 mph - 0.04 in Rain Rain
5:41 PM 37.4 °F 33.8 °F 35.6 °F 93% 29.61 in 3.0 mi NNE 4.6 mph - 0.07 in Rain Rain
5:53 PM 37.0 °F 34.5 °F 36.0 °F 96% 29.62 in 3.0 mi North 3.5 mph - 0.09 in Rain Rain
6:53 PM 37.0 °F 32.4 °F 36.0 °F 96% 29.64 in 4.0 mi NW 5.8 mph - 0.09 in Rain Rain
7:28 PM 35.6 °F 31.7 °F 35.6 °F 100% 29.63 in 4.0 mi NW 4.6 mph - 0.06 in Rain Rain
7:49 PM 35.6 °F 30.7 °F 33.8 °F 93% 29.63 in 3.0 mi NW 5.8 mph - 0.10 in Rain Rain
7:53 PM 35.1 °F 30.1 °F 34.0 °F 96% 29.64 in 3.0 mi NW 5.8 mph - 0.10 in Rain Rain
8:00 PM 33.8 °F 28.6 °F 33.8 °F 100% 29.63 in 3.0 mi West 5.8 mph - 0.02 in Snow Light Snow
8:06 PM 33.8 °F 27.7 °F 33.8 °F 100% 29.63 in 1.8 mi West 6.9 mph - 0.04 in Snow Light Snow
8:11 PM 33.8 °F 28.6 °F 32.0 °F 93% 29.63 in 1.0 mi West 5.8 mph - 0.05 in Snow Light Snow
8:21 PM 32.0 °F 27.5 °F 32.0 °F 100% 29.63 in 0.8 mi West 4.6 mph - 0.07 in Snow Light Snow
8:53 PM 32.0 °F 25.6 °F 32.0 °F 100% 29.65 in 1.0 mi West 6.9 mph - 0.12 in Snow Light Snow
9:19 PM 32.0 °F 24.8 °F 32.0 °F 100% 29.64 in 1.8 mi West 8.1 mph - 0.03 in Snow Light Snow
9:39 PM 32.0 °F 24.8 °F 32.0 °F 100% 29.64 in 2.0 mi West 8.1 mph - 0.04 in Snow Light Snow
9:53 PM 32.0 °F 24.2 °F 32.0 °F 100% 29.65 in 2.0 mi West 9.2 mph - 0.04 in Snow Light Snow
10:12 PM 32.0 °F 23.0 °F 30.2 °F 93% 29.64 in 1.5 mi West 11.5 mph 18.4 mph 0.01 in Snow Light Snow
10:53 PM 32.0 °F 23.0 °F 30.9 °F 96% 29.66 in 1.0 mi West 11.5 mph 16.1 mph 0.05 in Snow Light Snow
11:15 PM 32.0 °F 23.6 °F 30.2 °F 93% 29.65 in 0.8 mi West 10.4 mph - 0.02 in Snow Light Snow
11:22 PM 32.0 °F 23.6 °F 30.2 °F 93% 29.64 in 1.0 mi West 10.4 mph 16.1 mph 0.02 in Snow Light Snow
11:35 PM 32.0 °F 22.5 °F 30.2 °F 93% 29.64 in 0.8 mi West 12.7 mph - 0.04 in Snow Light Snow
11:53 PM 32.0 °F 22.5 °F 30.9 °F 96% 29.66 in 1.0 mi West 12.7 mph - 0.05 in Snow Light Snow